TimeMST,TemperatureF,Dew PointF,Humidity,Sea Level PressureIn,VisibilityMPH,Wind Direction,Wind SpeedMPH,Gust SpeedMPH,PrecipitationIn,Events,Conditions,WindDirDegrees,DateUTC
12:55 AM,28.0,14.0,56,30.17,10.0,North,4.6,-,N/A,,Clear,350,2012-12-05 07:55:00
1:55 AM,30.0,16.0,56,30.14,10.0,Calm,Calm,-,N/A,,Clear,0,2012-12-05 08:55:00
2:55 AM,34.0,15.1,46,30.12,10.0,North,3.5,-,N/A,,Clear,360,2012-12-05 09:55:00
3:55 AM,27.0,15.1,61,30.13,10.0,North,3.5,-,N/A,,Clear,350,2012-12-05 10:55:00
4:55 AM,25.0,15.1,66,30.18,10.0,Calm,Calm,-,N/A,,Clear,0,2012-12-05 11:55:00
5:55 AM,26.1,16.0,66,30.19,10.0,NNW,6.9,-,N/A,,Clear,340,2012-12-05 12:55:00
7:55 AM,39.0,19.9,46,30.16,10.0,North,4.6,-,N/A,,Clear,10,2012-12-05 14:55:00
8:55 AM,48.0,21.0,34,30.08,10.0,North,3.5,-,N/A,,Clear,360,2012-12-05 15:55:00
9:55 AM,54.0,18.0,24,30.04,10.0,Calm,Calm,-,N/A,,Clear,0,2012-12-05 16:55:00
10:55 AM,61.0,18.0,19,29.97,10.0,SSE,6.9,-,N/A,,Clear,150,2012-12-05 17:55:00
11:55 AM,63.0,19.0,18,29.92,10.0,ESE,6.9,-,N/A,,Clear,120,2012-12-05 18:55:00
12:55 PM,66.0,21.0,18,29.85,10.0,South,10.4,-,N/A,,Clear,180,2012-12-05 19:55:00
1:55 PM,66.0,23.0,20,29.81,10.0,SSW,11.5,-,N/A,,Clear,200,2012-12-05 20:55:00
2:55 PM,63.0,24.1,23,29.79,10.0,SSE,3.5,-,N/A,,Clear,160,2012-12-05 21:55:00
3:55 PM,55.9,23.0,28,29.83,10.0,SSE,5.8,-,N/A,,Clear,150,2012-12-05 22:55:00
4:55 PM,51.1,23.0,33,29.85,10.0,SE,9.2,-,N/A,,Clear,130,2012-12-05 23:55:00
5:55 PM,50.0,21.9,33,29.86,10.0,ESE,3.5,-,N/A,,Clear,120,2012-12-06 00:55:00
6:55 PM,45.0,21.9,40,29.88,10.0,ESE,4.6,-,N/A,,Clear,110,2012-12-06 01:55:00
7:55 PM,39.9,21.0,47,29.83,10.0,Calm,Calm,-,N/A,,Clear,0,2012-12-06 02:55:00
8:55 PM,36.0,21.0,55,29.82,10.0,NNW,3.5,-,N/A,,Clear,330,2012-12-06 03:55:00
9:55 PM,44.1,24.1,45,29.78,10.0,North,12.7,-,N/A,,Clear,350,2012-12-06 04:55:00
10:55 PM,44.1,25.0,47,29.76,10.0,North,16.1,23.0,N/A,,Clear,10,2012-12-06 05:55:00
11:55 PM,37.0,24.1,59,29.79,10.0,Calm,Calm,-,N/A,,Clear,0,2012-12-06 06:55:00